Other Public Products
Issued by NWS Grand Forks, ND

Home | Current Version | Previous Version | Graphics & Text | Print | Product List | Glossary On
Versions: 1 2 3 4 5 6 7 8 9 10 11 12 13 14 15 16 17 18 19 20 21 22 23 24 25 26 27 28 29 30 31 32 33 34 35 36 37 38 39 40 41 42 43 44 45 46 47 48 49 50
000
FPUS83 KFGF 261510
OPUFGF
PRAIRIE TO PINES WEATHER ROUNDUP
NATIONAL WEATHER SERVICE EASTERN NORTH DAKOTA/GRAND FORKS ND
1000 AM CDT WED JUL 26 2017

 **SATELLITE DATA USED TO AUGMENT SKY COVER AT AUTOMATED STATIONS**
 *****  WEATHER ACROSS EASTERN NORTH DAKOTA  *****

CITY           SKY/WX    TMP DP  RH WIND       PRES   REMARKS
GRAND FORKS    FAIR      74  63  68 N12       30.03R
GRAND FORKS AF FAIR      73  62  68 N12       30.05R
GRAND CITY NWS NOT AVBL
BUXTON           N/A     74  66  75 N3          N/A
DEVILS LAKE    FAIR      69  60  73 NW15      30.11R
FARGO          FAIR      74  62  66 N14       30.04R
WAHPETON ARPT  FAIR      73  57  56 NW5       30.06R
$$

 *****  WEATHER ACROSS CENTRAL AND WESTERN NORTH DAKOTA  *****

CITY           SKY/WX    TMP DP  RH WIND       PRES   REMARKS
JAMESTOWN      FAIR      74  58  57 NW12      30.09R
BISMARCK       FAIR      78  58  49 N6        30.12R
MINOT          FAIR      73  58  59 NW7       30.14R
MINOT AFB      FAIR      71  58  62 N6        30.13S
GARRISON         N/A     75  58  55 VRB6      30.13S
WILLISTON      FAIR      74  54  49 NE6       30.15S
DICKINSON      FAIR      75  55  49 E8        30.14S
HETTINGER      FAIR      78  49  35 NE6       30.16S
$$

 *****  OTHER OBSERVATIONS NORTHEAST NORTH DAKOTA  *****

CITY           SKY/WX    TMP DP  RH WIND       PRES   REMARKS
WALHALLA       NOT AVBL
LANGDON        FAIR      70  64  83 N14       30.09S
CAVALIER       FAIR      70  63  78 N12       30.04S
GRAFTON        FAIR      72  63  73 NW13      30.06R
CANDO          NOT AVBL
FORT TOTTEN      N/A     72  62  70 NW6       29.95S
ROLLA            N/A     68  59  73 N13       30.13R
RUGBY          NOT AVBL
 ***** THE ABOVE OBSERVATIONS ARE NON NWS ARE NOT QUALITY
        CONTROLLED AND MAY MIS-REPORT RAIN FOR SNOW...
$$

 *****  OTHER OBSERVATIONS SOUTHEAST NORTH DAKOTA *****

CITY           SKY/WX    TMP DP  RH WIND       PRES   REMARKS
COOPERSTOWN    FAIR      72  61  68 NW16G22   30.09R
VALLEY CITY    FAIR      73  61  64 N14       30.09S
OAKES          NOT AVBL
GWINNER        SUNNY     75  63  64 NE7       30.08R
SHEYENNE NWR     N/A     76  61  58 N6        29.95S
BUFFALO          N/A     72  56  56 SE13        N/A
WYNDMERE       NOT AVBL
 ***** THE ABOVE OBSERVATIONS ARE NON NWS ARE NOT QUALITY
       CONTROLLED AND MAY MIS-REPORT RAIN FOR SNOW...
$$

  *****  WEATHER ACROSS NORTHERN MINNESOTA  *****

CITY           SKY/WX    TMP DP  RH WIND       PRES   REMARKS
FLAG ISLAND    FAIR      70  61  73 N12       29.98R
WARROAD        FAIR      72  64  78 NW8       30.01R
ROSEAU         FAIR      72  64  78 NW8       30.01R
HALLOCK        FAIR      72  64  78 N9        30.02S
THF RVR FALLS  FAIR      70  61  73 NW7       30.04R
HALSTAD        NOT AVBL
FOSSTON        FAIR      70  61  73 N10       30.05R
BAUDETTE       FAIR      72  63  73 NW9       29.99R
WASKISH        FAIR      72  63  73 W7        30.01R
CROOKSTON      FAIR      70  63  78 N8        30.04R
$$
  *****  WEATHER ACROSS CENTRAL AND WEST MINNESOTA  *****

CITY           SKY/WX    TMP DP  RH WIND       PRES   REMARKS
BEMIDJI        FAIR      71  59  65 NW13      30.02S
PARK RAPIDS    FAIR      74  59  59 N7        30.04R
WADENA         FAIR      72  59  64 CALM      30.04S
DETROIT LAKES  FAIR      70  61  73 NW8       30.06S
MOORHEAD       FAIR      72  61  68 N7        30.05R
FERGUS FALLS   FAIR      73  61  64 CALM      30.05R
ELBOW LAKE     FAIR      72  61  69 CALM      30.06S
MORRIS MN      FAIR      73  63  68 CALM      30.05R
STAPLES        FAIR      72  57  60 CALM      30.04F
WHEATON        FAIR      75  57  53 N3        30.07S
$$
  *****  WEATHER ELSEWHERE ACROSS MINNESOTA  *****

CITY           SKY/WX    TMP DP  RH WIND       PRES   REMARKS
DULUTH         FAIR      73  58  59 VRB5      30.00S
INTRNTL FALLS  FAIR      73  61  65 W7        29.97R
ELY            FAIR      72  55  56 W6        29.99R
CLOQUET        FAIR      72  57  60 CALM      30.01S
BRAINERD       FAIR      72  58  61 CALM      30.03S
HIBBING        FAIR      70  59  68 NW6       30.00S
ALEXANDRIA     FAIR      74  60  61 N7        30.07R
SAINT CLOUD    FAIR      73  68  84 N6        30.03R
MINNEAPOLIS    CLOUDY    73  70  90 NW7       30.01S
$$

  *****  WEATHER ACROSS SOUTH DAKOTA  *****

CITY           SKY/WX    TMP DP  RH WIND       PRES   REMARKS
SIOUX FALLS    PTSUNNY   76  70  82 E6        30.03R
BROOKINGS      CLOUDY    74  68  81 NE12      30.06R
WATERTOWN      FAIR      72  60  66 E8        30.07R
HURON          FAIR      75  69  81 NE12      30.03S
SISSETON         N/A     78  62  57 NE7       30.06R
ABERDEEN       FAIR      76  63  64 NE9       30.07R
MITCHELL       PTSUNNY   77  71  82 NE12      30.04R
PIERRE         FAIR      75  64  68 NE12      30.06R
MOBRIDGE       FAIR      78  60  53 N5        30.08R
RAPID CITY     CLOUDY    75  50  41 N8        30.18R
$$

  *****  SOME WEATHER IN NEARBY STATES *****

CITY           SKY/WX    TMP DP  RH WIND       PRES   REMARKS
GLASGOW MT     FAIR      75  49  39 SE13      30.13S
GREAT FALLS MT FAIR      66  38  35 SW7       30.15S
CHEYENNE WY    CLOUDY    61  58  90 N6        30.31R
SCOTTSBLUFF NE CLOUDY    66  61  84 W9        30.20R
OMAHA NE       LGT RAIN  77  73  87 S12       29.98S
DES MOINES IA  LGT RAIN  76  70  82 SW5       30.00S
DAVENPORT IA   FAIR      78  71  79 S8        30.05F
CHICAGO IL     CLOUDY    77  64  64 SW9       30.08F
EAU CLAIRE WI  LGT RAIN  71  69  93 CALM      29.98S
LA CROSSE WI   FAIR      78  71  79 S9        30.00F
$$

  *****  SOME NATIONAL WEATHER *****

CITY           SKY/WX    TMP DP  RH WIND       PRES   REMARKS
LA GUARDIA NY  FAIR      73  56  54 NE9       30.23F
RALEIGH NC     FAIR      82  64  54 VRB5      30.21R
ATLANTA GA     FAIR      87  66  49 NE9       30.14F
NEW ORLEANS LA FAIR      86  77  74 NW8       30.13F HX  97
OKLAHOMA CITY  PTSUNNY   86  69  56 SW18G25   30.04S HX  90
ALBUQUERQUE NM PTSUNNY   77  57  50 NW8       30.28R
SALT LAKE CITY PTSUNNY   70  62  76 SE10      30.19S
LOS ANGELES CA PTSUNNY   69  63  81 W3        30.01S
BOISE ID       FAIR      72  58  61 SE12      30.10R
SEATTLE WA     FAIR      60  55  83 VRB6      30.10R
$$

*** WEATHER ACROSS MANITOBA...SASKATCHEWAN AND ONTARIO ***
                ***ONTARIO***

CITY           SKY/WX    TMP DP  RH WIND       PRES   REMARKS
GERALDTON      MOSUNNY   72  55  56 W14G21    29.78F
THUNDER BAY    MOSUNNY   75  57  53 W10G18    29.89S
SIOUX LOOKOUT  PTSUNNY   68  59  73 NW13G20   29.90R
TORONTO        PTSUNNY   68  57  68 S7        30.18S
BIG TROUT LK   CLOUDY    59  59 100 NW13G25   29.68R
PICKLE LAKE    PTSUNNY   66  57  72 W15       29.78R
DRYDEN         MOSUNNY   68  59  73 NW10G18   29.93R
KENORA         NOT AVBL
$$
                *** MANITOBA***

CITY           SKY/WX    TMP DP  RH WIND       PRES   REMARKS
BRANDON        SUNNY     72  61  68 NW9       30.10S
DAUPHIN        SUNNY     72  63  73 W10       30.07S
ISLAND LAKE    MOSUNNY   68  61  77 NW12      29.88R
PILOT MOUND      N/A     68  59  73 NW8         N/A
THE PAS        MOSUNNY   70  57  64 NW10      30.01R
THOMPSON       MOSUNNY   70  57  64 N9G20     29.93R
WINNIPEG       MOSUNNY   72  64  78 NW9       30.03R
LYNN LAKE      SUNNY     68  57  68 VRB2      29.97S
CHURCHILL      MOSUNNY   57  54  88 N13G20    29.85R
GILLAM         PTSUNNY   63  55  77 N13       29.87R
$$
                ***SASKATCHEWAN***

CITY           SKY/WX    TMP DP  RH WIND       PRES   REMARKS
ESTEVAN        MOSUNNY   70  57  64 S2        30.17R
KINDERSLEY     SUNNY     66  54  63 VRB2      30.12S
LLOYDMINSTER   MOSUNNY   66  55  68 SW8       30.10S
PRINCE ALBERT  MOSUNNY   68  57  68 VRB2      30.11S
REGINA         SUNNY     70  55  60 S6        30.16F
YORKTON        SUNNY     70  59  68 NW5       30.12S


USA.gov is the U.S. government's official web portal to all federal, state and local government web resources and services.